Location: Unspecified
(0.0000°N, 0.0000°E)
Time: 13:36:00
(UTC+00:00)

STARLINK-35348 - Pass Details

Date: 20 February 2026
Orbit: 474 x 476 km, 53.2° (Epoch: 14 March)

Event Time Altitude Azimuth Distance (km) Brightness Sun altitude
Rises 19:16:47 0° 197° (SSW) 2,522 6.4 -15.5°
Reaches altitude 10° 19:19:08 10° 186° (S) 1,640 5.2 -16.1°
Maximum altitude 19:22:23 29° 124° (SE) 892 3.3 -16.9°
Enters shadow 19:22:25 29° 123° (ESE) 892 3.3 -16.9°
